AUI2309 UKBB-UKDE

Flight info

Callsign AUI2309
Flight time N/A
Altitude 21000
Route BASOR L33 DEMER M70 ODNIV
Aircraft B738/M-SDE2E3FGHIRWXY/L

Departure

Time N/A
Airport Boryspil International Airport (UKBB)

Arrival

Time 2026-04-26 15:46
Airport Zaporizhzhia International Airport (UKDE)
Time Latitude Longitude Altitude Speed Heading
2026-04-26 15:00 49.75613 31.29831 21000 ft 341 kts 136°
2026-04-26 15:00 49.73907 31.32334 21000 ft 341 kts 136°
2026-04-26 15:00 49.72178 31.34869 21001 ft 341 kts 136°
2026-04-26 15:00 49.70466 31.37375 21000 ft 341 kts 136°
2026-04-26 15:01 49.68751 31.39884 21000 ft 341 kts 136°
2026-04-26 15:01 49.67058 31.42358 21000 ft 341 kts 136°
2026-04-26 15:01 49.65505 31.44626 20999 ft 341 kts 136°
2026-04-26 15:01 49.63806 31.47105 20999 ft 341 kts 136°
2026-04-26 15:02 49.62085 31.49614 21000 ft 341 kts 136°
2026-04-26 15:02 49.60364 31.52119 21000 ft 341 kts 136°
2026-04-26 15:02 49.58653 31.54608 20999 ft 341 kts 136°
2026-04-26 15:02 49.56936 31.57103 20999 ft 341 kts 136°
2026-04-26 15:03 49.55334 31.59542 20999 ft 341 kts 132°
2026-04-26 15:03 49.53817 31.62455 20999 ft 341 kts 123°
2026-04-26 15:03 49.52646 31.65650 21001 ft 341 kts 116°
2026-04-26 15:03 49.51739 31.68508 21002 ft 341 kts 116°
2026-04-26 15:04 49.50680 31.71797 21000 ft 341 kts 117°
2026-04-26 15:04 49.49627 31.75051 21000 ft 341 kts 116°
2026-04-26 15:04 49.48586 31.78277 20999 ft 341 kts 116°
2026-04-26 15:04 49.47536 31.81531 21000 ft 341 kts 116°
2026-04-26 15:05 49.46482 31.84792 21000 ft 341 kts 116°
2026-04-26 15:05 49.45775 31.86981 21000 ft 341 kts 116°
2026-04-26 15:05 49.44372 31.91322 21000 ft 341 kts 116°
2026-04-26 15:05 49.43315 31.94587 21003 ft 345 kts 116°
2026-04-26 15:06 49.42217 31.97973 21006 ft 355 kts 116°
2026-04-26 15:06 49.41101 32.01394 21002 ft 364 kts 117°
2026-04-26 15:06 49.39933 32.04908 21000 ft 372 kts 117°
2026-04-26 15:06 49.38762 32.08421 21000 ft 379 kts 117°
2026-04-26 15:07 49.36337 32.15698 20999 ft 390 kts 117°
2026-04-26 15:07 49.35120 32.19340 20999 ft 395 kts 117°
2026-04-26 15:07 49.33863 32.23099 20999 ft 399 kts 117°
2026-04-26 15:08 49.32583 32.26920 20999 ft 402 kts 117°
2026-04-26 15:08 49.31313 32.30708 20999 ft 405 kts 117°
2026-04-26 15:08 49.30026 32.34538 20999 ft 408 kts 117°
2026-04-26 15:08 49.28704 32.38468 20999 ft 410 kts 117°
2026-04-26 15:09 49.27411 32.42307 20999 ft 412 kts 117°
2026-04-26 15:09 49.26083 32.46240 20999 ft 414 kts 117°
2026-04-26 15:09 49.24766 32.50139 20999 ft 415 kts 117°
2026-04-26 15:09 49.23447 32.54036 21000 ft 416 kts 117°
2026-04-26 15:10 49.22115 32.57966 21000 ft 417 kts 117°
2026-04-26 15:10 49.21237 32.60553 20999 ft 418 kts 117°
2026-04-26 15:10 49.19452 32.65803 21000 ft 419 kts 117°
2026-04-26 15:10 49.18165 32.69583 20999 ft 420 kts 117°
2026-04-26 15:11 49.16812 32.73550 20999 ft 420 kts 117°
2026-04-26 15:11 49.15451 32.77534 20999 ft 421 kts 117°
2026-04-26 15:11 49.14107 32.81462 20999 ft 421 kts 117°
2026-04-26 15:11 49.12738 32.85457 21000 ft 422 kts 117°
2026-04-26 15:12 49.11380 32.89416 20999 ft 422 kts 117°
2026-04-26 15:12 49.10031 32.93339 20999 ft 422 kts 117°
2026-04-26 15:12 49.08669 32.97296 21000 ft 422 kts 117°
2026-04-26 15:12 49.07304 33.01255 20999 ft 422 kts 117°
2026-04-26 15:13 49.05921 33.05260 21000 ft 423 kts 117°
2026-04-26 15:13 49.04549 33.09228 20999 ft 423 kts 117°
2026-04-26 15:13 49.03170 33.13208 20999 ft 423 kts 117°
2026-04-26 15:13 49.01807 33.17137 21000 ft 423 kts 117°
2026-04-26 15:14 49.00424 33.21119 21000 ft 423 kts 117°
2026-04-26 15:14 48.99055 33.25052 20999 ft 423 kts 117°
2026-04-26 15:14 48.97684 33.28986 21000 ft 423 kts 117°
2026-04-26 15:14 48.96299 33.32955 21000 ft 423 kts 117°
2026-04-26 15:15 48.94925 33.36888 21000 ft 423 kts 117°
2026-04-26 15:15 48.93585 33.40883 21000 ft 423 kts 116°
2026-04-26 15:15 48.92283 33.44882 21000 ft 423 kts 116°
2026-04-26 15:15 48.90976 33.48874 21000 ft 423 kts 116°
2026-04-26 15:16 48.89690 33.52786 21000 ft 423 kts 116°
2026-04-26 15:16 48.88405 33.56686 20999 ft 423 kts 116°
2026-04-26 15:16 48.87056 33.60772 20999 ft 423 kts 116°
2026-04-26 15:16 48.85749 33.64722 20999 ft 423 kts 116°
2026-04-26 15:17 48.84419 33.68737 21000 ft 423 kts 117°
2026-04-26 15:17 48.83539 33.71386 21000 ft 423 kts 117°
2026-04-26 15:17 48.81786 33.76660 21000 ft 423 kts 117°
2026-04-26 15:17 48.80456 33.80650 21000 ft 423 kts 117°
2026-04-26 15:18 48.79133 33.84615 21000 ft 423 kts 117°
2026-04-26 15:18 48.77813 33.88563 21000 ft 423 kts 117°
2026-04-26 15:18 48.76493 33.92507 21000 ft 422 kts 117°
2026-04-26 15:18 48.75151 33.96508 21000 ft 422 kts 117°
2026-04-26 15:19 48.73827 34.00451 20999 ft 422 kts 117°
2026-04-26 15:19 48.72483 34.04446 20999 ft 422 kts 117°
2026-04-26 15:19 48.71138 34.08441 20999 ft 422 kts 117°
2026-04-26 15:19 48.69814 34.12362 20999 ft 422 kts 117°
2026-04-26 15:20 48.68469 34.16344 20999 ft 422 kts 117°
2026-04-26 15:20 48.67140 34.20270 20999 ft 422 kts 117°
2026-04-26 15:20 48.65815 34.24177 20990 ft 409 kts 117°
2026-04-26 15:20 48.64553 34.27895 20991 ft 383 kts 117°
2026-04-26 15:21 48.63382 34.31326 20995 ft 358 kts 117°
2026-04-26 15:21 48.62277 34.34557 20997 ft 338 kts 117°
2026-04-26 15:21 48.61205 34.37686 21004 ft 337 kts 117°
2026-04-26 15:21 48.60117 34.40860 21003 ft 341 kts 117°
2026-04-26 15:22 48.59041 34.43993 21000 ft 341 kts 117°
2026-04-26 15:22 48.57956 34.47153 21001 ft 341 kts 117°
2026-04-26 15:22 48.56856 34.50348 20999 ft 339 kts 117°
2026-04-26 15:22 48.55774 34.53487 21000 ft 337 kts 117°
2026-04-26 15:23 48.54690 34.56631 21000 ft 338 kts 117°
2026-04-26 15:23 48.53603 34.59781 20871 ft 341 kts 117°
2026-04-26 15:23 48.52516 34.62923 20618 ft 340 kts 117°
2026-04-26 15:23 48.51423 34.66081 20367 ft 338 kts 118°
2026-04-26 15:24 48.50401 34.69030 20132 ft 336 kts 118°
2026-04-26 15:24 48.49324 34.72134 19882 ft 335 kts 118°
2026-04-26 15:24 48.48246 34.75238 19632 ft 334 kts 118°
2026-04-26 15:24 48.47171 34.78326 19382 ft 332 kts 118°
2026-04-26 15:25 48.46098 34.81410 19131 ft 331 kts 118°
2026-04-26 15:25 48.45390 34.83441 18966 ft 330 kts 118°
2026-04-26 15:25 48.43975 34.87499 18633 ft 329 kts 117°
2026-04-26 15:25 48.42920 34.90573 18381 ft 327 kts 117°
2026-04-26 15:26 48.41879 34.93582 18123 ft 326 kts 118°
2026-04-26 15:26 48.40812 34.96626 17753 ft 326 kts 118°
2026-04-26 15:26 48.39763 34.99601 17430 ft 323 kts 118°
2026-04-26 15:26 48.38709 35.02586 17102 ft 321 kts 118°
2026-04-26 15:27 48.37666 35.05537 16778 ft 319 kts 118°
2026-04-26 15:27 48.36635 35.08451 16455 ft 317 kts 118°
2026-04-26 15:27 48.35555 35.11280 16128 ft 315 kts 126°
2026-04-26 15:27 48.33962 35.13541 15798 ft 314 kts 148°
2026-04-26 15:28 48.32043 35.15013 15488 ft 313 kts 153°
2026-04-26 15:28 48.30141 35.16561 15163 ft 312 kts 150°
2026-04-26 15:28 48.28239 35.18150 14834 ft 310 kts 151°
2026-04-26 15:28 48.26337 35.19640 14506 ft 309 kts 157°
2026-04-26 15:29 48.24340 35.20538 14189 ft 307 kts 168°
2026-04-26 15:29 48.22230 35.21183 13861 ft 306 kts 168°
2026-04-26 15:29 48.18085 35.22499 13208 ft 303 kts 168°
2026-04-26 15:30 48.13969 35.23806 12553 ft 300 kts 168°
2026-04-26 15:30 48.11941 35.24450 12210 ft 298 kts 168°
2026-04-26 15:30 48.09964 35.25078 11835 ft 292 kts 168°
2026-04-26 15:31 48.07977 35.25709 11453 ft 286 kts 168°
2026-04-26 15:31 48.04174 35.26897 10704 ft 277 kts 171°
2026-04-26 15:31 48.02271 35.27168 10328 ft 273 kts 176°
2026-04-26 15:32 47.99152 35.27484 9703 ft 268 kts 175°
2026-04-26 15:32 47.96706 35.27740 9204 ft 264 kts 176°
2026-04-26 15:32 47.94886 35.27931 8828 ft 262 kts 175°
2026-04-26 15:33 47.93088 35.28119 8455 ft 260 kts 175°
2026-04-26 15:33 47.91270 35.28310 8074 ft 258 kts 175°
2026-04-26 15:33 47.89497 35.28496 7701 ft 257 kts 175°
2026-04-26 15:33 47.87806 35.28623 7343 ft 255 kts 179°
2026-04-26 15:34 47.86037 35.28623 6968 ft 254 kts 180°
2026-04-26 15:34 47.84269 35.28624 6591 ft 253 kts 180°
2026-04-26 15:34 47.82520 35.28626 6215 ft 251 kts 180°
2026-04-26 15:34 47.80774 35.28629 5838 ft 250 kts 180°
2026-04-26 15:35 47.79047 35.28632 5464 ft 248 kts 180°
2026-04-26 15:35 47.77344 35.28610 5092 ft 247 kts 181°
2026-04-26 15:35 47.75624 35.28492 4711 ft 246 kts 189°
2026-04-26 15:35 47.74084 35.27526 4335 ft 244 kts 218°
2026-04-26 15:36 47.72893 35.25738 3985 ft 242 kts 229°
2026-04-26 15:36 47.71941 35.23690 3608 ft 241 kts 240°
2026-04-26 15:36 47.71071 35.21553 3232 ft 241 kts 237°
2026-04-26 15:36 47.70183 35.19455 2856 ft 240 kts 238°
2026-04-26 15:37 47.69198 35.17485 2479 ft 239 kts 225°
2026-04-26 15:37 47.68000 35.15766 2138 ft 237 kts 224°
2026-04-26 15:37 47.66835 35.14139 2064 ft 222 kts 218°
2026-04-26 15:37 47.65497 35.13219 2069 ft 207 kts 186°
2026-04-26 15:38 47.64116 35.13575 2082 ft 205 kts 151°
2026-04-26 15:38 47.63167 35.15017 2084 ft 189 kts 114°
2026-04-26 15:38 47.63042 35.16856 2118 ft 184 kts 78°
2026-04-26 15:38 47.63515 35.18631 2087 ft 185 kts 60°
2026-04-26 15:39 47.64230 35.20209 2073 ft 185 kts 46°
2026-04-26 15:39 47.65320 35.21165 2078 ft 185 kts 18°
2026-04-26 15:39 47.66555 35.21776 2072 ft 185 kts 19°
2026-04-26 15:39 47.67359 35.22185 2078 ft 185 kts 19°
2026-04-26 15:40 47.68984 35.23009 2133 ft 186 kts 18°
2026-04-26 15:40 47.70242 35.23434 2066 ft 184 kts
2026-04-26 15:40 47.71414 35.23736 2076 ft 158 kts
2026-04-26 15:40 47.72404 35.23993 2060 ft 129 kts
2026-04-26 15:41 47.73232 35.24192 2042 ft 119 kts
2026-04-26 15:41 47.74061 35.24363 2128 ft 122 kts
2026-04-26 15:41 47.74897 35.24562 2074 ft 122 kts 16°
2026-04-26 15:41 47.75718 35.24842 2075 ft 121 kts
2026-04-26 15:42 47.76559 35.25013 2074 ft 122 kts
2026-04-26 15:42 47.77393 35.25186 1989 ft 122 kts
2026-04-26 15:42 47.78234 35.25360 1912 ft 121 kts
2026-04-26 15:42 47.79071 35.25561 1829 ft 121 kts 18°
2026-04-26 15:43 47.79639 35.26406 1666 ft 121 kts 69°
2026-04-26 15:43 47.80030 35.27508 1515 ft 122 kts 40°
2026-04-26 15:43 47.81568 35.28479 1309 ft 121 kts 13°
2026-04-26 15:44 47.82384 35.28760 1149 ft 121 kts 19°
2026-04-26 15:44 47.83909 35.29744 756 ft 119 kts 21°
2026-04-26 15:44 47.84664 35.30210 664 ft 117 kts 23°
2026-04-26 15:45 47.86173 35.31185 386 ft 116 kts 23°
2026-04-26 15:45 47.86871 35.31609 384 ft 101 kts 20°
2026-04-26 15:46 47.87620 35.32073 384 ft 12 kts 23°
2026-04-26 15:46 47.87689 35.32122 384 ft 11 kts 28°
2026-04-26 15:46 47.87718 35.32156 384 ft 2 kts 19°
2026-04-26 15:46 47.87733 35.32140 384 ft 6 kts 280°
2026-04-26 15:47 47.87627 35.32064 384 ft 20 kts 193°
2026-04-26 15:47 47.87300 35.31871 384 ft 30 kts 202°
2026-04-26 15:47 47.87090 35.31739 384 ft 34 kts 202°
2026-04-26 15:48 47.86876 35.31604 384 ft 31 kts 202°
2026-04-26 15:48 47.86683 35.31491 384 ft 27 kts 200°
2026-04-26 15:48 47.86575 35.31372 384 ft 14 kts 264°
2026-04-26 15:48 47.86579 35.31233 384 ft 12 kts 274°
2026-04-26 15:49 47.86586 35.31082 384 ft 17 kts 272°
2026-04-26 15:49 47.86599 35.30870 384 ft 21 kts 292°
2026-04-26 15:49 47.86716 35.30724 383 ft 24 kts 331°
2026-04-26 15:49 47.86876 35.30589 384 ft 28 kts 330°
2026-04-26 15:50 47.87030 35.30452 383 ft 22 kts 329°
2026-04-26 15:50 47.87109 35.30391 384 ft 8 kts 345°
2026-04-26 15:50 47.87139 35.30412 384 ft 4 kts 51°
2026-04-26 15:50 47.87143 35.30419 384 ft 0 kts 55°